TimePDT,TemperatureF,Dew PointF,Humidity,Sea Level PressureIn,VisibilityMPH,Wind Direction,Wind SpeedMPH,Gust SpeedMPH,PrecipitationIn,Events,Conditions,WindDirDegrees,DateUTC
12:15 AM,48.2,46.4,93,29.83,7.0,SSE,6.9,-,0.03,,Overcast,160,2013-06-20 07:15:00
12:35 AM,48.2,46.4,93,29.82,9.0,South,5.8,-,0.04,,Overcast,170,2013-06-20 07:35:00
12:55 AM,50.0,46.4,87,29.82,5.0,SSE,6.9,-,0.05,,Overcast,160,2013-06-20 07:55:00
1:15 AM,50.0,46.4,87,29.81,10.0,South,8.1,-,0.03,,Overcast,170,2013-06-20 08:15:00
1:35 AM,50.0,46.4,87,29.81,10.0,SSE,5.8,-,0.06,,Overcast,150,2013-06-20 08:35:00
1:55 AM,50.0,46.4,87,29.80,10.0,South,8.1,-,0.11,,Overcast,170,2013-06-20 08:55:00
2:15 AM,50.0,46.4,87,29.80,10.0,South,8.1,-,0.03,,Overcast,170,2013-06-20 09:15:00
2:35 AM,50.0,46.4,87,29.80,10.0,South,6.9,-,0.09,,Overcast,170,2013-06-20 09:35:00
2:55 AM,50.0,46.4,87,29.80,10.0,SSW,3.5,-,0.15,,Overcast,200,2013-06-20 09:55:00
3:15 AM,50.0,46.4,87,29.79,10.0,SSW,6.9,-,0.06,,Overcast,200,2013-06-20 10:15:00
3:35 AM,50.0,46.4,87,29.79,9.0,SW,13.8,-,0.09,,Overcast,230,2013-06-20 10:35:00
3:55 AM,50.0,44.6,82,29.78,10.0,SW,17.3,24.2,0.11,,Overcast,220,2013-06-20 10:55:00
4:15 AM,50.0,44.6,82,29.77,10.0,SW,16.1,21.9,0.02,,Overcast,230,2013-06-20 11:15:00
4:35 AM,48.2,44.6,87,29.77,10.0,SW,19.6,24.2,0.03,,Overcast,220,2013-06-20 11:35:00
4:55 AM,48.2,44.6,87,29.78,10.0,SW,19.6,28.8,0.03,,Overcast,220,2013-06-20 11:55:00
5:15 AM,48.2,44.6,87,29.78,7.0,SW,24.2,29.9,0.01,,Overcast,230,2013-06-20 12:15:00
5:35 AM,48.2,44.6,87,29.78,7.0,SW,21.9,25.3,0.02,,Overcast,230,2013-06-20 12:35:00
5:55 AM,48.2,44.6,87,29.79,7.0,SW,18.4,24.2,0.03,,Overcast,230,2013-06-20 12:55:00
6:15 AM,48.2,44.6,87,29.80,5.0,SW,17.3,25.3,0.02,,Overcast,220,2013-06-20 13:15:00
6:35 AM,48.2,44.6,87,29.80,8.0,SW,16.1,25.3,0.03,,Overcast,230,2013-06-20 13:35:00
6:55 AM,48.2,44.6,87,29.81,10.0,SW,16.1,21.9,0.04,,Overcast,220,2013-06-20 13:55:00
7:15 AM,48.2,44.6,87,29.82,7.0,SW,17.3,21.9,0.01,,Mostly Cloudy,220,2013-06-20 14:15:00
7:35 AM,48.2,44.6,87,29.82,7.0,SW,17.3,23.0,0.02,,Mostly Cloudy,220,2013-06-20 14:35:00
7:55 AM,48.2,44.6,87,29.83,9.0,SSW,12.7,20.7,0.03,,Overcast,210,2013-06-20 14:55:00
8:15 AM,48.2,44.6,87,29.83,8.0,SSW,13.8,18.4,0.01,,Overcast,200,2013-06-20 15:15:00
8:35 AM,48.2,42.8,82,29.83,10.0,SW,17.3,24.2,0.02,,Overcast,230,2013-06-20 15:35:00
8:55 AM,48.2,44.6,87,29.84,10.0,SW,16.1,21.9,0.02,,Overcast,230,2013-06-20 15:55:00
9:15 AM,48.2,44.6,87,29.85,10.0,SW,15.0,18.4,0.01,,Overcast,220,2013-06-20 16:15:00
9:35 AM,48.2,44.6,87,29.86,10.0,SW,15.0,-,0.03,,Mostly Cloudy,230,2013-06-20 16:35:00
9:55 AM,48.2,44.6,87,29.86,9.0,SW,15.0,20.7,0.04,,Mostly Cloudy,220,2013-06-20 16:55:00
10:15 AM,48.2,44.6,87,29.86,8.0,SW,16.1,-,0.01,,Overcast,220,2013-06-20 17:15:00
10:35 AM,48.2,44.6,87,29.87,10.0,SSW,9.2,-,0.02,,Overcast,200,2013-06-20 17:35:00
10:55 AM,48.2,44.6,87,29.88,10.0,SSW,11.5,-,0.03,,Overcast,200,2013-06-20 17:55:00
11:15 AM,48.2,44.6,87,29.89,10.0,SSW,15.0,-,0.01,,Overcast,210,2013-06-20 18:15:00
11:35 AM,48.2,44.6,87,29.90,10.0,South,8.1,-,0.02,,Overcast,190,2013-06-20 18:35:00
11:55 AM,48.2,44.6,87,29.91,10.0,SSW,8.1,-,0.05,,Overcast,200,2013-06-20 18:55:00
12:15 PM,48.2,44.6,87,29.92,9.0,South,6.9,-,0.04,,Mostly Cloudy,180,2013-06-20 19:15:00
12:35 PM,48.2,44.6,87,29.93,10.0,SW,11.5,-,0.11,,Overcast,230,2013-06-20 19:35:00
12:55 PM,48.2,42.8,82,29.94,10.0,SW,12.7,-,0.16,,Mostly Cloudy,230,2013-06-20 19:55:00
1:15 PM,48.2,42.8,82,29.94,10.0,SSW,11.5,19.6,0.01,,Overcast,210,2013-06-20 20:15:00
1:35 PM,48.2,42.8,82,29.95,10.0,SSW,13.8,19.6,0.02,,Overcast,210,2013-06-20 20:35:00
1:55 PM,48.2,42.8,82,29.96,10.0,South,8.1,-,0.04,,Overcast,180,2013-06-20 20:55:00
2:15 PM,48.2,42.8,82,29.97,10.0,South,6.9,-,0.02,,Overcast,190,2013-06-20 21:15:00
2:35 PM,48.2,42.8,82,29.97,10.0,SSE,6.9,-,0.03,,Overcast,160,2013-06-20 21:35:00
2:55 PM,48.2,42.8,82,29.98,10.0,South,8.1,-,0.05,,Overcast,190,2013-06-20 21:55:00
3:15 PM,48.2,42.8,82,29.99,10.0,South,4.6,-,0.02,,Overcast,180,2013-06-20 22:15:00
3:35 PM,48.2,44.6,87,30.00,10.0,South,8.1,-,0.03,,Overcast,170,2013-06-20 22:35:00
3:55 PM,48.2,44.6,87,30.01,10.0,SSW,13.8,18.4,0.09,,Overcast,210,2013-06-20 22:55:00
4:15 PM,48.2,42.8,82,30.01,10.0,SW,12.7,17.3,0.02,,Overcast,220,2013-06-20 23:15:00
4:35 PM,48.2,42.8,82,30.02,10.0,SSW,9.2,-,0.03,,Mostly Cloudy,210,2013-06-20 23:35:00
4:55 PM,48.2,42.8,82,30.02,10.0,South,8.1,-,0.03,,Overcast,180,2013-06-20 23:55:00
5:15 PM,48.2,42.8,82,30.02,10.0,SSE,11.5,-,0.02,,Overcast,160,2013-06-21 00:15:00
5:35 PM,48.2,44.6,87,30.02,10.0,SSE,11.5,-,0.03,,Mostly Cloudy,160,2013-06-21 00:35:00
5:55 PM,48.2,44.6,87,30.03,10.0,SSE,8.1,-,0.04,,Overcast,160,2013-06-21 00:55:00
6:15 PM,48.2,44.6,87,30.03,10.0,South,8.1,-,0.01,,Overcast,180,2013-06-21 01:15:00
6:35 PM,48.2,44.6,87,30.04,9.0,SSE,9.2,-,0.02,,Overcast,160,2013-06-21 01:35:00
6:55 PM,48.2,44.6,87,30.04,10.0,SSE,9.2,-,0.02,,Overcast,150,2013-06-21 01:55:00
7:15 PM,48.2,44.6,87,30.04,10.0,SSE,8.1,-,N/A,,Overcast,160,2013-06-21 02:15:00
7:35 PM,48.2,44.6,87,30.05,10.0,SSE,9.2,-,N/A,,Mostly Cloudy,150,2013-06-21 02:35:00
7:55 PM,48.2,44.6,87,30.05,10.0,SSE,11.5,-,N/A,,Overcast,150,2013-06-21 02:55:00
8:15 PM,48.2,44.6,87,30.05,10.0,SSE,9.2,-,N/A,,Overcast,160,2013-06-21 03:15:00
8:35 PM,48.2,44.6,87,30.05,10.0,SSE,8.1,-,N/A,,Mostly Cloudy,150,2013-06-21 03:35:00
8:55 PM,48.2,44.6,87,30.06,10.0,SSE,9.2,-,N/A,,Overcast,150,2013-06-21 03:55:00
9:15 PM,48.2,42.8,82,30.06,10.0,SSE,8.1,-,N/A,,Overcast,150,2013-06-21 04:15:00
9:35 PM,48.2,42.8,82,30.07,10.0,SSE,6.9,-,N/A,,Overcast,160,2013-06-21 04:35:00
9:55 PM,48.2,42.8,82,30.07,10.0,SSE,6.9,-,N/A,,Overcast,150,2013-06-21 04:55:00
10:15 PM,48.2,42.8,82,30.07,10.0,SSE,6.9,-,N/A,,Overcast,160,2013-06-21 05:15:00
10:35 PM,48.2,42.8,82,30.07,10.0,SSE,5.8,-,N/A,,Overcast,160,2013-06-21 05:35:00
10:55 PM,48.2,42.8,82,30.07,10.0,SSE,6.9,-,N/A,,Overcast,150,2013-06-21 05:55:00
11:15 PM,46.4,42.8,87,30.07,10.0,SSE,6.9,-,N/A,,Overcast,160,2013-06-21 06:15:00
11:35 PM,46.4,44.6,93,30.07,8.0,SSE,6.9,-,N/A,,Overcast,150,2013-06-21 06:35:00
11:55 PM,46.4,44.6,93,30.07,4.0,South,4.6,-,N/A,,Overcast,170,2013-06-21 06:55:00